owner,sensor,date,latitude,longitude,vertical_datum,wind_speed,wind_to_direction,wind_speed_of_gust,qcFlag 
TCOON,ioos:station:TCOON:518:1,2015-08-01T00:00:00Z,29.5150,-94.5133,0.0,1.5,187.0,2.5,'11111222,11111222,11111222' 
TCOON,ioos:station:TCOON:518:1,2015-08-01T00:06:00Z,29.5150,-94.5133,0.0,2.1,175.0,2.4,'11111222,11111222,11111222' 
TCOON,ioos:station:TCOON:518:1,2015-08-01T00:12:00Z,29.5150,-94.5133,0.0,1.8,189.0,2.9,'11111222,11111222,11111222' 
TCOON,ioos:station:TCOON:518:1,2015-08-01T00:18:00Z,29.5150,-94.5133,0.0,2.3,183.0,3.1,'11111222,11111222,11111222' 
TCOON,ioos:station:TCOON:518:1,2015-08-01T00:24:00Z,29.5150,-94.5133,0.0,2.1,183.0,3.0,'11111222,11111222,11111222' 
TCOON,ioos:station:TCOON:518:1,2015-08-01T00:30:00Z,29.5150,-94.5133,0.0,2.3,169.0,3.4,'11111222,11111222,11111222' 
TCOON,ioos:station:TCOON:518:1,2015-08-01T00:36:00Z,29.5150,-94.5133,0.0,2.1,161.0,3.0,'11111222,11111222,11111222' 
TCOON,ioos:station:TCOON:518:1,2015-08-01T00:42:00Z,29.5150,-94.5133,0.0,1.9,169.0,2.5,'11111222,11111222,11111222' 
TCOON,ioos:station:TCOON:518:1,2015-08-01T00:48:00Z,29.5150,-94.5133,0.0,2.1,181.0,2.8,'11111222,11111222,11111222' 
TCOON,ioos:station:TCOON:518:1,2015-08-01T00:54:00Z,29.5150,-94.5133,0.0,1.4,173.0,5.1,'11111222,11111222,11111222' 
TCOON,ioos:station:TCOON:518:1,2015-08-01T01:00:00Z,29.5150,-94.5133,0.0,1.1,198.0,1.8,'11111222,11111222,11111222' 
TCOON,ioos:station:TCOON:518:1,2015-08-01T01:06:00Z,29.5150,-94.5133,0.0,0.8,168.0,1.7,'11111222,11111222,11111222' 
TCOON,ioos:station:TCOON:518:1,2015-08-01T01:12:00Z,29.5150,-94.5133,0.0,1.0,189.0,1.9,'11111222,11111222,11111222' 
TCOON,ioos:station:TCOON:518:1,2015-08-01T01:18:00Z,29.5150,-94.5133,0.0,1.2,171.0,1.5,'11111222,11111222,11111222' 
TCOON,ioos:station:TCOON:518:1,2015-08-01T01:24:00Z,29.5150,-94.5133,0.0,0.7,188.0,1.7,'11111222,11111222,11111222' 
TCOON,ioos:station:TCOON:518:1,2015-08-01T01:30:00Z,29.5150,-94.5133,0.0,0.4,243.0,1.0,'11111222,11111222,11111222' 
TCOON,ioos:station:TCOON:518:1,2015-08-01T01:36:00Z,29.5150,-94.5133,0.0,1.0,221.0,1.3,'11111222,11111222,11111222' 
TCOON,ioos:station:TCOON:518:1,2015-08-01T01:42:00Z,29.5150,-94.5133,0.0,1.2,211.0,1.3,'11111222,11111222,11111222' 
TCOON,ioos:station:TCOON:518:1,2015-08-01T01:48:00Z,29.5150,-94.5133,0.0,0.5,232.0,1.4,'11111222,11111222,11111222' 
TCOON,ioos:station:TCOON:518:1,2015-08-01T01:54:00Z,29.5150,-94.5133,0.0,0.0,212.0,0.8,'11111222,11111222,11111222' 
TCOON,ioos:station:TCOON:518:1,2015-08-01T02:00:00Z,29.5150,-94.5133,0.0,0.1,212.0,0.4,'11111222,11111222,11111222' 
TCOON,ioos:station:TCOON:518:1,2015-08-01T02:06:00Z,29.5150,-94.5133,0.0,0.2,336.0,0.6,'11111222,11111222,11111222' 
TCOON,ioos:station:TCOON:518:1,2015-08-01T02:12:00Z,29.5150,-94.5133,0.0,0.4,107.0,0.9,'11111222,11111222,11111222' 
TCOON,ioos:station:TCOON:518:1,2015-08-01T02:18:00Z,29.5150,-94.5133,0.0,1.3,73.0,1.7,'11111222,11111222,11111222' 
TCOON,ioos:station:TCOON:518:1,2015-08-01T02:24:00Z,29.5150,-94.5133,0.0,1.9,63.0,2.6,'11111222,11111222,11111222' 
TCOON,ioos:station:TCOON:518:1,2015-08-01T02:30:00Z,29.5150,-94.5133,0.0,2.7,66.0,3.2,'11111222,11111222,11111222' 
TCOON,ioos:station:TCOON:518:1,2015-08-01T02:36:00Z,29.5150,-94.5133,0.0,2.6,65.0,3.0,'11111222,11111222,11111222' 
TCOON,ioos:station:TCOON:518:1,2015-08-01T02:42:00Z,29.5150,-94.5133,0.0,2.7,62.0,3.2,'11111222,11111222,11111222' 
TCOON,ioos:station:TCOON:518:1,2015-08-01T02:48:00Z,29.5150,-94.5133,0.0,2.7,64.0,3.3,'11111222,11111222,11111222' 
TCOON,ioos:station:TCOON:518:1,2015-08-01T02:54:00Z,29.5150,-94.5133,0.0,2.8,47.0,4.0,'11111222,11111222,11111222' 
TCOON,ioos:station:TCOON:518:1,2015-08-01T03:00:00Z,29.5150,-94.5133,0.0,3.4,44.0,3.6,'11111222,11111222,11111222' 
TCOON,ioos:station:TCOON:518:1,2015-08-01T03:06:00Z,29.5150,-94.5133,0.0,2.6,51.0,3.7,'11111222,11111222,11111222' 
TCOON,ioos:station:TCOON:518:1,2015-08-01T03:12:00Z,29.5150,-94.5133,0.0,3.2,45.0,3.6,'11111222,11111222,11111222' 
TCOON,ioos:station:TCOON:518:1,2015-08-01T03:18:00Z,29.5150,-94.5133,0.0,3.3,24.0,3.8,'11111222,11111222,11111222' 
TCOON,ioos:station:TCOON:518:1,2015-08-01T03:24:00Z,29.5150,-94.5133,0.0,2.3,33.0,3.3,'11111222,11111222,11111222' 
TCOON,ioos:station:TCOON:518:1,2015-08-01T03:30:00Z,29.5150,-94.5133,0.0,2.4,46.0,2.7,'11111222,11111222,11111222' 
TCOON,ioos:station:TCOON:518:1,2015-08-01T03:36:00Z,29.5150,-94.5133,0.0,2.4,47.0,3.0,'11111222,11111222,11111222' 
TCOON,ioos:station:TCOON:518:1,2015-08-01T03:42:00Z,29.5150,-94.5133,0.0,3.0,42.0,3.3,'11111222,11111222,11111222' 
TCOON,ioos:station:TCOON:518:1,2015-08-01T03:48:00Z,29.5150,-94.5133,0.0,2.5,30.0,3.7,'11111222,11111222,11111222' 
TCOON,ioos:station:TCOON:518:1,2015-08-01T03:54:00Z,29.5150,-94.5133,0.0,2.4,25.0,2.7,'11111222,11111222,11111222' 
TCOON,ioos:station:TCOON:518:1,2015-08-01T04:00:00Z,29.5150,-94.5133,0.0,2.3,26.0,2.5,'11111222,11111222,11111222' 
TCOON,ioos:station:TCOON:518:1,2015-08-01T04:06:00Z,29.5150,-94.5133,0.0,2.3,27.0,2.8,'11111222,11111222,11111222' 
TCOON,ioos:station:TCOON:518:1,2015-08-01T04:12:00Z,29.5150,-94.5133,0.0,2.4,35.0,2.8,'11111222,11111222,11111222' 
TCOON,ioos:station:TCOON:518:1,2015-08-01T04:18:00Z,29.5150,-94.5133,0.0,2.4,35.0,2.9,'11111222,11111222,11111222' 
TCOON,ioos:station:TCOON:518:1,2015-08-01T04:24:00Z,29.5150,-94.5133,0.0,2.6,34.0,2.9,'11111222,11111222,11111222' 
TCOON,ioos:station:TCOON:518:1,2015-08-01T04:30:00Z,29.5150,-94.5133,0.0,2.6,41.0,3.2,'11111222,11111222,11111222' 
TCOON,ioos:station:TCOON:518:1,2015-08-01T04:36:00Z,29.5150,-94.5133,0.0,3.4,38.0,4.4,'11111222,11111222,11111222' 
TCOON,ioos:station:TCOON:518:1,2015-08-01T04:42:00Z,29.5150,-94.5133,0.0,3.7,37.0,4.7,'11111222,11111222,11111222' 
TCOON,ioos:station:TCOON:518:1,2015-08-01T04:48:00Z,29.5150,-94.5133,0.0,3.7,40.0,4.5,'11111222,11111222,11111222' 
TCOON,ioos:station:TCOON:518:1,2015-08-01T04:54:00Z,29.5150,-94.5133,0.0,4.3,44.0,5.1,'11111222,11111222,11111222' 
TCOON,ioos:station:TCOON:518:1,2015-08-01T05:00:00Z,29.5150,-94.5133,0.0,4.0,48.0,5.3,'11111222,11111222,11111222' 
TCOON,ioos:station:TCOON:518:1,2015-08-01T05:06:00Z,29.5150,-94.5133,0.0,4.6,48.0,5.2,'11111222,11111222,11111222' 
TCOON,ioos:station:TCOON:518:1,2015-08-01T05:12:00Z,29.5150,-94.5133,0.0,4.8,46.0,5.6,'11111222,11111222,11111222' 
TCOON,ioos:station:TCOON:518:1,2015-08-01T05:18:00Z,29.5150,-94.5133,0.0,3.8,46.0,5.1,'11111222,11111222,11111222' 
TCOON,ioos:station:TCOON:518:1,2015-08-01T05:24:00Z,29.5150,-94.5133,0.0,3.9,45.0,4.6,'11111222,11111222,11111222' 
TCOON,ioos:station:TCOON:518:1,2015-08-01T05:30:00Z,29.5150,-94.5133,0.0,4.0,49.0,5.4,'11111222,11111222,11111222' 
TCOON,ioos:station:TCOON:518:1,2015-08-01T05:36:00Z,29.5150,-94.5133,0.0,3.9,53.0,4.5,'11111222,11111222,11111222' 
TCOON,ioos:station:TCOON:518:1,2015-08-01T05:42:00Z,29.5150,-94.5133,0.0,3.9,51.0,4.6,'11111222,11111222,11111222' 
TCOON,ioos:station:TCOON:518:1,2015-08-01T05:48:00Z,29.5150,-94.5133,0.0,3.7,48.0,4.4,'11111222,11111222,11111222' 
TCOON,ioos:station:TCOON:518:1,2015-08-01T05:54:00Z,29.5150,-94.5133,0.0,3.8,45.0,4.4,'11111222,11111222,11111222' 
TCOON,ioos:station:TCOON:518:1,2015-08-01T06:00:00Z,29.5150,-94.5133,0.0,4.0,38.0,4.6,'11111222,11111222,11111222' 
TCOON,ioos:station:TCOON:518:1,2015-08-01T06:06:00Z,29.5150,-94.5133,0.0,3.9,29.0,4.4,'11111222,11111222,11111222' 
TCOON,ioos:station:TCOON:518:1,2015-08-01T06:12:00Z,29.5150,-94.5133,0.0,3.6,39.0,4.2,'11111222,11111222,11111222' 
TCOON,ioos:station:TCOON:518:1,2015-08-01T06:18:00Z,29.5150,-94.5133,0.0,3.6,38.0,4.2,'11111222,11111222,11111222' 
TCOON,ioos:station:TCOON:518:1,2015-08-01T06:24:00Z,29.5150,-94.5133,0.0,3.5,43.0,4.3,'11111222,11111222,11111222' 
TCOON,ioos:station:TCOON:518:1,2015-08-01T06:30:00Z,29.5150,-94.5133,0.0,3.5,35.0,4.1,'11111222,11111222,11111222' 
TCOON,ioos:station:TCOON:518:1,2015-08-01T06:36:00Z,29.5150,-94.5133,0.0,99.0,-9999.0,99.0,'11144222,99999999,11144222' 
TCOON,ioos:station:TCOON:518:1,2015-08-01T06:42:00Z,29.5150,-94.5133,0.0,99.0,-9999.0,99.0,'11144222,99999999,11144222' 
TCOON,ioos:station:TCOON:518:1,2015-08-01T06:48:00Z,29.5150,-94.5133,0.0,99.0,-9999.0,99.0,'11144222,99999999,11144222' 
TCOON,ioos:station:TCOON:518:1,2015-08-01T06:54:00Z,29.5150,-94.5133,0.0,3.8,42.0,4.2,'11111222,11111222,11111222' 
TCOON,ioos:station:TCOON:518:1,2015-08-01T07:00:00Z,29.5150,-94.5133,0.0,4.2,42.0,4.6,'11111222,11111222,11111222' 
TCOON,ioos:station:TCOON:518:1,2015-08-01T07:06:00Z,29.5150,-94.5133,0.0,3.9,47.0,4.6,'11111222,11111222,11111222' 
TCOON,ioos:station:TCOON:518:1,2015-08-01T07:12:00Z,29.5150,-94.5133,0.0,4.0,51.0,4.8,'11111222,11111222,11111222' 
TCOON,ioos:station:TCOON:518:1,2015-08-01T07:18:00Z,29.5150,-94.5133,0.0,4.2,49.0,5.0,'11111222,11111222,11111222' 
TCOON,ioos:station:TCOON:518:1,2015-08-01T07:24:00Z,29.5150,-94.5133,0.0,4.4,48.0,5.0,'11111222,11111222,11111222' 
TCOON,ioos:station:TCOON:518:1,2015-08-01T07:30:00Z,29.5150,-94.5133,0.0,4.6,46.0,5.1,'11111222,11111222,11111222' 
TCOON,ioos:station:TCOON:518:1,2015-08-01T07:36:00Z,29.5150,-94.5133,0.0,3.8,39.0,5.7,'11111222,11111222,11111222' 
TCOON,ioos:station:TCOON:518:1,2015-08-01T07:42:00Z,29.5150,-94.5133,0.0,4.0,35.0,4.6,'11111222,11111222,11111222' 
TCOON,ioos:station:TCOON:518:1,2015-08-01T07:48:00Z,29.5150,-94.5133,0.0,3.5,37.0,4.5,'11111222,11111222,11111222' 
TCOON,ioos:station:TCOON:518:1,2015-08-01T07:54:00Z,29.5150,-94.5133,0.0,3.0,45.0,3.9,'11111222,11111222,11111222' 
TCOON,ioos:station:TCOON:518:1,2015-08-01T08:00:00Z,29.5150,-94.5133,0.0,3.5,43.0,4.0,'11111222,11111222,11111222' 
TCOON,ioos:station:TCOON:518:1,2015-08-01T08:06:00Z,29.5150,-94.5133,0.0,3.7,44.0,4.3,'11111222,11111222,11111222' 
TCOON,ioos:station:TCOON:518:1,2015-08-01T08:12:00Z,29.5150,-94.5133,0.0,3.9,42.0,4.7,'11111222,11111222,11111222' 
TCOON,ioos:station:TCOON:518:1,2015-08-01T08:18:00Z,29.5150,-94.5133,0.0,4.0,39.0,4.5,'11111222,11111222,11111222' 
TCOON,ioos:station:TCOON:518:1,2015-08-01T08:24:00Z,29.5150,-94.5133,0.0,4.2,41.0,4.8,'11111222,11111222,11111222' 
TCOON,ioos:station:TCOON:518:1,2015-08-01T08:30:00Z,29.5150,-94.5133,0.0,4.4,43.0,5.2,'11111222,11111222,11111222' 
TCOON,ioos:station:TCOON:518:1,2015-08-01T08:36:00Z,29.5150,-94.5133,0.0,4.3,39.0,5.1,'11111222,11111222,11111222' 
TCOON,ioos:station:TCOON:518:1,2015-08-01T08:42:00Z,29.5150,-94.5133,0.0,4.4,38.0,5.3,'11111222,11111222,11111222' 
TCOON,ioos:station:TCOON:518:1,2015-08-01T08:48:00Z,29.5150,-94.5133,0.0,4.2,40.0,5.1,'11111222,11111222,11111222' 
TCOON,ioos:station:TCOON:518:1,2015-08-01T08:54:00Z,29.5150,-94.5133,0.0,4.0,43.0,5.1,'11111222,11111222,11111222' 
TCOON,ioos:station:TCOON:518:1,2015-08-01T09:00:00Z,29.5150,-94.5133,0.0,4.2,43.0,4.8,'11111222,11111222,11111222' 
TCOON,ioos:station:TCOON:518:1,2015-08-01T09:06:00Z,29.5150,-94.5133,0.0,5.0,35.0,5.6,'11111222,11111222,11111222' 
TCOON,ioos:station:TCOON:518:1,2015-08-01T09:12:00Z,29.5150,-94.5133,0.0,4.9,34.0,5.5,'11111222,11111222,11111222' 
TCOON,ioos:station:TCOON:518:1,2015-08-01T09:18:00Z,29.5150,-94.5133,0.0,5.1,32.0,6.1,'11111222,11111222,11111222' 
TCOON,ioos:station:TCOON:518:1,2015-08-01T09:24:00Z,29.5150,-94.5133,0.0,5.2,28.0,6.1,'11111222,11111222,11111222' 
TCOON,ioos:station:TCOON:518:1,2015-08-01T09:30:00Z,29.5150,-94.5133,0.0,5.4,27.0,6.4,'11111222,11111222,11111222' 
TCOON,ioos:station:TCOON:518:1,2015-08-01T09:36:00Z,29.5150,-94.5133,0.0,5.3,32.0,6.1,'11111222,11111222,11111222' 
TCOON,ioos:station:TCOON:518:1,2015-08-01T09:42:00Z,29.5150,-94.5133,0.0,5.5,33.0,6.5,'11111222,11111222,11111222' 
TCOON,ioos:station:TCOON:518:1,2015-08-01T09:48:00Z,29.5150,-94.5133,0.0,5.5,34.0,6.6,'11111222,11111222,11111222' 
TCOON,ioos:station:TCOON:518:1,2015-08-01T09:54:00Z,29.5150,-94.5133,0.0,5.3,29.0,6.7,'11111222,11111222,11111222' 
TCOON,ioos:station:TCOON:518:1,2015-08-01T10:00:00Z,29.5150,-94.5133,0.0,5.6,22.0,6.4,'11111222,11111222,11111222' 
TCOON,ioos:station:TCOON:518:1,2015-08-01T10:06:00Z,29.5150,-94.5133,0.0,6.0,21.0,7.0,'11111222,11111222,11111222' 
TCOON,ioos:station:TCOON:518:1,2015-08-01T10:12:00Z,29.5150,-94.5133,0.0,6.3,22.0,7.0,'11111222,11111222,11111222' 
TCOON,ioos:station:TCOON:518:1,2015-08-01T10:18:00Z,29.5150,-94.5133,0.0,6.1,25.0,7.1,'11111222,11111222,11111222' 
TCOON,ioos:station:TCOON:518:1,2015-08-01T10:24:00Z,29.5150,-94.5133,0.0,6.2,28.0,7.0,'11111222,11111222,11111222' 
TCOON,ioos:station:TCOON:518:1,2015-08-01T10:30:00Z,29.5150,-94.5133,0.0,5.5,31.0,6.7,'11111222,11111222,11111222' 
TCOON,ioos:station:TCOON:518:1,2015-08-01T10:36:00Z,29.5150,-94.5133,0.0,5.9,33.0,7.3,'11111222,11111222,11111222' 
TCOON,ioos:station:TCOON:518:1,2015-08-01T10:42:00Z,29.5150,-94.5133,0.0,5.7,34.0,6.8,'11111222,11111222,11111222' 
TCOON,ioos:station:TCOON:518:1,2015-08-01T10:48:00Z,29.5150,-94.5133,0.0,5.9,31.0,7.1,'11111222,11111222,11111222' 
TCOON,ioos:station:TCOON:518:1,2015-08-01T10:54:00Z,29.5150,-94.5133,0.0,6.1,29.0,7.1,'11111222,11111222,11111222' 
TCOON,ioos:station:TCOON:518:1,2015-08-01T11:00:00Z,29.5150,-94.5133,0.0,6.5,23.0,7.9,'11111222,11111222,11111222' 
TCOON,ioos:station:TCOON:518:1,2015-08-01T11:06:00Z,29.5150,-94.5133,0.0,6.0,28.0,7.3,'11111222,11111222,11111222' 
TCOON,ioos:station:TCOON:518:1,2015-08-01T11:12:00Z,29.5150,-94.5133,0.0,6.2,30.0,7.5,'11111222,11111222,11111222' 
TCOON,ioos:station:TCOON:518:1,2015-08-01T11:18:00Z,29.5150,-94.5133,0.0,6.1,32.0,7.5,'11111222,11111222,11111222' 
TCOON,ioos:station:TCOON:518:1,2015-08-01T11:24:00Z,29.5150,-94.5133,0.0,6.3,31.0,7.6,'11111222,11111222,11111222' 
TCOON,ioos:station:TCOON:518:1,2015-08-01T11:30:00Z,29.5150,-94.5133,0.0,5.5,34.0,7.0,'11111222,11111222,11111222' 
TCOON,ioos:station:TCOON:518:1,2015-08-01T11:36:00Z,29.5150,-94.5133,0.0,5.5,37.0,6.6,'11111222,11111222,11111222' 
TCOON,ioos:station:TCOON:518:1,2015-08-01T11:42:00Z,29.5150,-94.5133,0.0,5.5,37.0,6.6,'11111222,11111222,11111222' 
TCOON,ioos:station:TCOON:518:1,2015-08-01T11:48:00Z,29.5150,-94.5133,0.0,5.3,42.0,6.8,'11111222,11111222,11111222' 
TCOON,ioos:station:TCOON:518:1,2015-08-01T11:54:00Z,29.5150,-94.5133,0.0,5.6,47.0,6.6,'11111222,11111222,11111222' 
TCOON,ioos:station:TCOON:518:1,2015-08-01T12:00:00Z,29.5150,-94.5133,0.0,5.4,48.0,6.6,'11111222,11111222,11111222' 
TCOON,ioos:station:TCOON:518:1,2015-08-01T12:06:00Z,29.5150,-94.5133,0.0,5.1,45.0,6.1,'11111222,11111222,11111222' 
TCOON,ioos:station:TCOON:518:1,2015-08-01T12:12:00Z,29.5150,-94.5133,0.0,5.4,47.0,6.5,'11111222,11111222,11111222' 
TCOON,ioos:station:TCOON:518:1,2015-08-01T12:18:00Z,29.5150,-94.5133,0.0,5.5,47.0,6.3,'11111222,11111222,11111222' 
TCOON,ioos:station:TCOON:518:1,2015-08-01T12:24:00Z,29.5150,-94.5133,0.0,5.4,53.0,6.3,'11111222,11111222,11111222' 
TCOON,ioos:station:TCOON:518:1,2015-08-01T12:30:00Z,29.5150,-94.5133,0.0,5.2,52.0,6.2,'11111222,11111222,11111222' 
TCOON,ioos:station:TCOON:518:1,2015-08-01T12:36:00Z,29.5150,-94.5133,0.0,5.0,50.0,6.5,'11111222,11111222,11111222' 
TCOON,ioos:station:TCOON:518:1,2015-08-01T12:42:00Z,29.5150,-94.5133,0.0,5.9,53.0,6.6,'11111222,11111222,11111222' 
TCOON,ioos:station:TCOON:518:1,2015-08-01T12:48:00Z,29.5150,-94.5133,0.0,5.7,55.0,6.6,'11111222,11111222,11111222' 
TCOON,ioos:station:TCOON:518:1,2015-08-01T12:54:00Z,29.5150,-94.5133,0.0,6.1,52.0,6.8,'11111222,11111222,11111222' 
TCOON,ioos:station:TCOON:518:1,2015-08-01T13:00:00Z,29.5150,-94.5133,0.0,6.1,50.0,6.7,'11111222,11111222,11111222' 
TCOON,ioos:station:TCOON:518:1,2015-08-01T13:06:00Z,29.5150,-94.5133,0.0,5.9,48.0,7.1,'11111222,11111222,11111222' 
TCOON,ioos:station:TCOON:518:1,2015-08-01T13:12:00Z,29.5150,-94.5133,0.0,5.5,45.0,6.8,'11111222,11111222,11111222' 
TCOON,ioos:station:TCOON:518:1,2015-08-01T13:18:00Z,29.5150,-94.5133,0.0,5.6,46.0,6.7,'11111222,11111222,11111222' 
TCOON,ioos:station:TCOON:518:1,2015-08-01T13:24:00Z,29.5150,-94.5133,0.0,5.4,50.0,6.3,'11111222,11111222,11111222' 
TCOON,ioos:station:TCOON:518:1,2015-08-01T13:30:00Z,29.5150,-94.5133,0.0,5.5,54.0,6.7,'11111222,11111222,11111222' 
TCOON,ioos:station:TCOON:518:1,2015-08-01T13:36:00Z,29.5150,-94.5133,0.0,5.5,50.0,6.3,'11111222,11111222,11111222' 
TCOON,ioos:station:TCOON:518:1,2015-08-01T13:42:00Z,29.5150,-94.5133,0.0,5.3,55.0,6.0,'11111222,11111222,11111222' 
TCOON,ioos:station:TCOON:518:1,2015-08-01T13:48:00Z,29.5150,-94.5133,0.0,5.7,64.0,6.6,'11111222,11111222,11111222' 
TCOON,ioos:station:TCOON:518:1,2015-08-01T13:54:00Z,29.5150,-94.5133,0.0,5.8,72.0,6.7,'11111222,11111222,11111222' 
TCOON,ioos:station:TCOON:518:1,2015-08-01T14:00:00Z,29.5150,-94.5133,0.0,5.1,71.0,6.8,'11111222,11111222,11111222' 
TCOON,ioos:station:TCOON:518:1,2015-08-01T14:06:00Z,29.5150,-94.5133,0.0,5.7,80.0,6.7,'11111222,11111222,11111222' 
TCOON,ioos:station:TCOON:518:1,2015-08-01T14:12:00Z,29.5150,-94.5133,0.0,6.0,81.0,7.2,'11111222,11111222,11111222' 
TCOON,ioos:station:TCOON:518:1,2015-08-01T14:18:00Z,29.5150,-94.5133,0.0,6.1,78.0,7.8,'11111222,11111222,11111222' 
TCOON,ioos:station:TCOON:518:1,2015-08-01T14:24:00Z,29.5150,-94.5133,0.0,6.4,80.0,7.8,'11111222,11111222,11111222' 
TCOON,ioos:station:TCOON:518:1,2015-08-01T14:30:00Z,29.5150,-94.5133,0.0,6.1,87.0,7.6,'11111222,11111222,11111222' 
TCOON,ioos:station:TCOON:518:1,2015-08-01T14:36:00Z,29.5150,-94.5133,0.0,7.4,95.0,8.7,'11111222,11111222,11111222' 
TCOON,ioos:station:TCOON:518:1,2015-08-01T14:42:00Z,29.5150,-94.5133,0.0,6.3,89.0,8.8,'11111222,11111222,11111222' 
TCOON,ioos:station:TCOON:518:1,2015-08-01T14:48:00Z,29.5150,-94.5133,0.0,6.4,89.0,8.1,'11111222,11111222,11111222' 
TCOON,ioos:station:TCOON:518:1,2015-08-01T14:54:00Z,29.5150,-94.5133,0.0,6.0,96.0,8.9,'11111222,11111222,11111222' 
TCOON,ioos:station:TCOON:518:1,2015-08-01T15:00:00Z,29.5150,-94.5133,0.0,6.9,82.0,7.9,'11111222,11111222,11111222' 
TCOON,ioos:station:TCOON:518:1,2015-08-01T15:06:00Z,29.5150,-94.5133,0.0,6.3,91.0,8.4,'11111222,11111222,11111222' 
TCOON,ioos:station:TCOON:518:1,2015-08-01T15:12:00Z,29.5150,-94.5133,0.0,6.6,93.0,8.0,'11111222,11111222,11111222' 
TCOON,ioos:station:TCOON:518:1,2015-08-01T15:18:00Z,29.5150,-94.5133,0.0,6.5,91.0,7.9,'11111222,11111222,11111222' 
TCOON,ioos:station:TCOON:518:1,2015-08-01T15:24:00Z,29.5150,-94.5133,0.0,6.1,97.0,8.2,'11111222,11111222,11111222' 
TCOON,ioos:station:TCOON:518:1,2015-08-01T15:30:00Z,29.5150,-94.5133,0.0,6.6,84.0,8.6,'11111222,11111222,11111222' 
TCOON,ioos:station:TCOON:518:1,2015-08-01T15:36:00Z,29.5150,-94.5133,0.0,6.2,96.0,7.8,'11111222,11111222,11111222' 
TCOON,ioos:station:TCOON:518:1,2015-08-01T15:42:00Z,29.5150,-94.5133,0.0,7.2,98.0,8.4,'11111222,11111222,11111222' 
TCOON,ioos:station:TCOON:518:1,2015-08-01T15:48:00Z,29.5150,-94.5133,0.0,5.9,96.0,8.0,'11111222,11111222,11111222' 
TCOON,ioos:station:TCOON:518:1,2015-08-01T15:54:00Z,29.5150,-94.5133,0.0,6.2,97.0,8.3,'11111222,11111222,11111222' 
TCOON,ioos:station:TCOON:518:1,2015-08-01T16:00:00Z,29.5150,-94.5133,0.0,6.0,102.0,7.8,'11111222,11111222,11111222' 
TCOON,ioos:station:TCOON:518:1,2015-08-01T16:06:00Z,29.5150,-94.5133,0.0,7.3,106.0,8.2,'11111222,11111222,11111222' 
TCOON,ioos:station:TCOON:518:1,2015-08-01T16:12:00Z,29.5150,-94.5133,0.0,6.4,102.0,7.9,'11111222,11111222,11111222' 
TCOON,ioos:station:TCOON:518:1,2015-08-01T16:18:00Z,29.5150,-94.5133,0.0,6.4,99.0,7.5,'11111222,11111222,11111222' 
TCOON,ioos:station:TCOON:518:1,2015-08-01T16:24:00Z,29.5150,-94.5133,0.0,7.1,113.0,7.6,'11111222,11111222,11111222' 
TCOON,ioos:station:TCOON:518:1,2015-08-01T16:30:00Z,29.5150,-94.5133,0.0,6.6,105.0,7.5,'11111222,11111222,11111222' 
TCOON,ioos:station:TCOON:518:1,2015-08-01T16:36:00Z,29.5150,-94.5133,0.0,6.2,108.0,8.1,'11111222,11111222,11111222' 
TCOON,ioos:station:TCOON:518:1,2015-08-01T16:42:00Z,29.5150,-94.5133,0.0,6.3,111.0,7.4,'11111222,11111222,11111222' 
TCOON,ioos:station:TCOON:518:1,2015-08-01T16:48:00Z,29.5150,-94.5133,0.0,6.7,114.0,7.8,'11111222,11111222,11111222' 
TCOON,ioos:station:TCOON:518:1,2015-08-01T16:54:00Z,29.5150,-94.5133,0.0,6.5,112.0,7.5,'11111222,11111222,11111222' 
TCOON,ioos:station:TCOON:518:1,2015-08-01T17:00:00Z,29.5150,-94.5133,0.0,6.9,116.0,8.4,'11111222,11111222,11111222' 
TCOON,ioos:station:TCOON:518:1,2015-08-01T17:06:00Z,29.5150,-94.5133,0.0,6.0,111.0,7.5,'11111222,11111222,11111222' 
TCOON,ioos:station:TCOON:518:1,2015-08-01T17:12:00Z,29.5150,-94.5133,0.0,6.5,110.0,7.5,'11111222,11111222,11111222' 
TCOON,ioos:station:TCOON:518:1,2015-08-01T17:18:00Z,29.5150,-94.5133,0.0,6.8,115.0,7.6,'11111222,11111222,11111222' 
TCOON,ioos:station:TCOON:518:1,2015-08-01T17:24:00Z,29.5150,-94.5133,0.0,5.8,112.0,6.9,'11111222,11111222,11111222' 
TCOON,ioos:station:TCOON:518:1,2015-08-01T17:30:00Z,29.5150,-94.5133,0.0,6.4,110.0,7.8,'11111222,11111222,11111222' 
TCOON,ioos:station:TCOON:518:1,2015-08-01T17:36:00Z,29.5150,-94.5133,0.0,6.2,114.0,7.3,'11111222,11111222,11111222' 
TCOON,ioos:station:TCOON:518:1,2015-08-01T17:42:00Z,29.5150,-94.5133,0.0,7.1,116.0,7.7,'11111222,11111222,11111222' 
TCOON,ioos:station:TCOON:518:1,2015-08-01T17:48:00Z,29.5150,-94.5133,0.0,6.3,117.0,7.7,'11111222,11111222,11111222' 
TCOON,ioos:station:TCOON:518:1,2015-08-01T17:54:00Z,29.5150,-94.5133,0.0,6.3,121.0,7.5,'11111222,11111222,11111222' 
TCOON,ioos:station:TCOON:518:1,2015-08-01T18:00:00Z,29.5150,-94.5133,0.0,6.0,119.0,7.4,'11111222,11111222,11111222' 
TCOON,ioos:station:TCOON:518:1,2015-08-01T18:06:00Z,29.5150,-94.5133,0.0,6.0,115.0,6.9,'11111222,11111222,11111222' 
TCOON,ioos:station:TCOON:518:1,2015-08-01T18:12:00Z,29.5150,-94.5133,0.0,5.8,119.0,6.9,'11111222,11111222,11111222' 
TCOON,ioos:station:TCOON:518:1,2015-08-01T18:18:00Z,29.5150,-94.5133,0.0,5.8,122.0,6.7,'11111222,11111222,11111222' 
TCOON,ioos:station:TCOON:518:1,2015-08-01T18:24:00Z,29.5150,-94.5133,0.0,5.6,125.0,7.3,'11111222,11111222,11111222' 
TCOON,ioos:station:TCOON:518:1,2015-08-01T18:30:00Z,29.5150,-94.5133,0.0,5.6,120.0,6.7,'11111222,11111222,11111222' 
TCOON,ioos:station:TCOON:518:1,2015-08-01T18:36:00Z,29.5150,-94.5133,0.0,5.5,121.0,6.3,'11111222,11111222,11111222' 
TCOON,ioos:station:TCOON:518:1,2015-08-01T18:42:00Z,29.5150,-94.5133,0.0,5.7,124.0,6.5,'11111222,11111222,11111222' 
TCOON,ioos:station:TCOON:518:1,2015-08-01T18:48:00Z,29.5150,-94.5133,0.0,5.6,116.0,6.5,'11111222,11111222,11111222' 
TCOON,ioos:station:TCOON:518:1,2015-08-01T18:54:00Z,29.5150,-94.5133,0.0,5.9,120.0,6.9,'11111222,11111222,11111222' 
TCOON,ioos:station:TCOON:518:1,2015-08-01T19:00:00Z,29.5150,-94.5133,0.0,6.1,123.0,7.1,'11111222,11111222,11111222' 
TCOON,ioos:station:TCOON:518:1,2015-08-01T19:06:00Z,29.5150,-94.5133,0.0,5.6,135.0,6.6,'11111222,11111222,11111222' 
TCOON,ioos:station:TCOON:518:1,2015-08-01T19:12:00Z,29.5150,-94.5133,0.0,5.7,130.0,6.6,'11111222,11111222,11111222' 
TCOON,ioos:station:TCOON:518:1,2015-08-01T19:18:00Z,29.5150,-94.5133,0.0,5.4,138.0,6.5,'11111222,11111222,11111222' 
TCOON,ioos:station:TCOON:518:1,2015-08-01T19:24:00Z,29.5150,-94.5133,0.0,5.6,130.0,6.4,'11111222,11111222,11111222' 
TCOON,ioos:station:TCOON:518:1,2015-08-01T19:30:00Z,29.5150,-94.5133,0.0,5.3,132.0,6.4,'11111222,11111222,11111222' 
TCOON,ioos:station:TCOON:518:1,2015-08-01T19:36:00Z,29.5150,-94.5133,0.0,5.3,131.0,6.3,'11111222,11111222,11111222' 
TCOON,ioos:station:TCOON:518:1,2015-08-01T19:42:00Z,29.5150,-94.5133,0.0,5.6,138.0,6.3,'11111222,11111222,11111222' 
TCOON,ioos:station:TCOON:518:1,2015-08-01T19:48:00Z,29.5150,-94.5133,0.0,6.1,126.0,6.7,'11111222,11111222,11111222' 
TCOON,ioos:station:TCOON:518:1,2015-08-01T19:54:00Z,29.5150,-94.5133,0.0,6.4,126.0,7.0,'11111222,11111222,11111222' 
TCOON,ioos:station:TCOON:518:1,2015-08-01T20:00:00Z,29.5150,-94.5133,0.0,6.4,130.0,7.2,'11111222,11111222,11111222' 
TCOON,ioos:station:TCOON:518:1,2015-08-01T20:06:00Z,29.5150,-94.5133,0.0,5.7,138.0,7.1,'11111222,11111222,11111222' 
TCOON,ioos:station:TCOON:518:1,2015-08-01T20:12:00Z,29.5150,-94.5133,0.0,7.0,133.0,7.5,'11111222,11111222,11111222' 
TCOON,ioos:station:TCOON:518:1,2015-08-01T20:18:00Z,29.5150,-94.5133,0.0,6.1,136.0,7.1,'11111222,11111222,11111222' 
TCOON,ioos:station:TCOON:518:1,2015-08-01T20:24:00Z,29.5150,-94.5133,0.0,6.9,139.0,7.4,'11111222,11111222,11111222' 